CAPE
0 0 0 0 0 0 0 0 0 0 0 0 0 0 0 0 0 0 0 0 0 0 0 0 0 0 0 0 0 0 0 0 0 0 0 0 0 0 0 0 0 0 0
0 0 0 0 0 0 0 0 0 0 0 0 0 0 0 0 0 0 0 0 0 0 0 0 0 0 0 0 0 0 0 0 0 0 0 0 0 0 0 0 0 0 0
0 0 0 0 0 0 0 0 0 0 0 0 0 0 0 0 0 0 0 0 0 0 0 0 0 0 0 0 0 0 0 0 0 0 0 0 0 0 0 0 0 0 0
0 0 0 0 0 0 0 0 0 0 0 0 0 0 0 0 0 0 0 0 0 0 0 0 0 0 0 0 0 0 0 0 0 0 0 0 0 0 0 0 0 0 0
0 0 0 0 0 0 0 0 0 0 0 0 0 0 0 0 0 0 0 0 0 0 0 0 0 0 0 0 0 0 0 0 0 0 0 0 0 0 0 0 0 0 0
0 0 0 0 0 0 0 0 0 0 0 0 0 0 0 0 0 0 0 0 0 0 0 0 0 0 0 0 0 0 0 0 0 0 0 0 0 0 0 0 0 0 0
0 0 0 0 0 0 0 0 0 0 0 0 0 0 0 0 0 0 0 0 0 0 0 0 0 0 0 0 0 0 0 0 0 0 0 0 0 0 0 0 0 0 0
0 0 0 0 0 0 0 0 0 0 0 0 0 0 0 0 0 0 0 0 0 0 0 0 0 0 0 0 0 0 0 0 0 0 0 0 0 0 0 0 0 0 0
0 0 0 0 0 0 0 0 0 0 0 0 0 0 0 0 0 0 0 0 0 0 0 0 0 0 0 0 0 0 0 0 0 0 0 0 0 0 0 0 0 0 0
0 0 0 0 0 0 0 0 0 0 0 0 0 0 0 0 0 0 0 0 0 0 0 0 0 0 0 0 0 0 0 0 0 0 0 0 0 0 0 0 0 0 0
0 0 0 0 0 0 0 0 0 0 0 0 0 0 0 0 0 0 0 0 0 0 0 0 0 0 0 0 0 0 0 0 0 0 0 0 0 0 0 0 0 0 0
0 0 0 0 0 0 0 0 0 0 0 0 0 0 0 0 0 0 0 0 0 0 0 0 0 0 0 0 0 0 0 0 0 0 0 0 0 0 0 0 0 0 0
0 0 0 0 0 0 0 0 0 0 0 0 0 0 0 0 0 0 0 0 0 0 0 0 0 0 0 0 0 2 0 0 0 0 0 0 0 0 0 0 0 0 0
0 0 0 0 0 0 0 0 0 0 0 0 0 0 0 0 0 0 0 0 0 0 0 0 0 0 0 0 0 0 0 0 0 0 0 0 0 0 0 0 0 0 0
0 0 0 0 0 0 0 0 0 0 0 0 0 0 0 0 0 0 0 0 0 0 0 0 0 0 0 0 0 0 0 0 0 0 0 0 0 0 0 0 0 0 0
0 0 0 0 0 0 0 0 0 0 0 0 0 0 0 0 0 0 0 0 0 0 0 0 0 0 0 0 0 0 0 0 0 0 0 0 0 0 0 0 0 0 0
0 0 0 0 0 0 0 0 0 0 0 0 0 0 0 0 0 0 0 1 0 0 0 0 0 0 0 0 0 0 0 0 0 0 0 0 0 0 0 0 0 0 0
0 0 0 0 0 0 0 0 0 0 0 0 0 0 0 0 0 0 0 1 0 0 0 0 0 0 0 0 0 0 0 0 0 0 0 0 0 0 0 0 0 0 0
0 0 0 0 0 0 0 0 0 0 0 0 0 0 0 1 1 2 0 0 0 0 0 0 0 0 0 0 0 0 0 0 0 0 0 0 0 0 0 0 0 0 0
0 0 0 0 0 0 0 0 0 0 0 0 0 0 0 0 0 0 0 0 0 0 0 0 0 0 0 0 0 0 0 0 0 0 0 0 0 0 0 0 0 0 0
0 0 0 0 0 0 0 0 0 0 0 0 0 0 0 0 0 0 0 0 0 0 0 0 0 0 0 0 0 0 0 0 0 0 0 0 0 0 0 0 0 0 0
0 0 0 0 0 0 0 0 0 0 0 0 0 0 0 0 0 0 0 0 0 0 0 0 0 0 0 0 0 0 0 0 0 0 0 0 0 0 0 0 0 0 0
0 0 0 0 0 0 0 0 0 0 0 0 0 0 0 0 0 0 0 0 0 0 0 0 0 0 0 0 0 0 0 0 0 0 0 0 0 0 0 0 0 0 0
0 0 0 0 0 0 0 0 0 0 0 0 0 0 0 0 0 0 0 0 0 0 0 0 0 0 0 0 0 0 0 0 0 0 0 0 0 0 0 0 0 0 0
0 0 0 0 0 0 0 0 0 0 0 0 0 0 0 0 0 0 0 0 0 0 0 0 0 0 0 0 0 0 0 0 0 0 0 0 0 0 0 0 0 0 0
0 0 0 0 0 0 0 0 0 0 0 0 0 0 0 0 0 0 0 0 0 0 0 0 0 0 0 0 0 0 0 0 0 0 0 0 0 0 0 0 0 0 0
CIN
0 0 0 0 0 0 0 0 0 0 0 0 0 0 0 0 0 0 0 0 0 0 0 0 0 0 0 0 0 0 0 0 0 0 0 0 0 0 0 0 0 0 0
0 0 0 0 0 0 0 0 0 0 0 0 0 0 0 0 0 0 0 0 0 0 0 0 0 0 0 0 0 0 0 0 0 0 0 0 0 0 0 0 0 0 0
0 0 0 0 0 0 0 0 0 0 0 0 0 0 0 0 0 0 0 0 0 0 0 0 0 0 0 0 0 0 0 0 0 0 0 0 0 0 0 0 0 0 0
0 0 0 0 0 0 0 0 0 0 0 0 0 0 0 0 0 0 0 0 0 0 0 0 0 0 0 0 0 0 0 0 0 0 0 0 0 0 0 0 0 0 0
0 0 0 0 0 0 0 0 0 0 0 0 0 0 0 0 0 0 0 0 0 0 0 0 0 0 0 0 0 0 0 0 0 0 0 0 0 0 0 0 0 0 0
0 0 0 0 0 0 0 0 0 0 0 0 0 0 0 0 0 0 0 0 0 0 0 0 0 0 0 0 0 0 0 0 0 0 0 0 0 0 0 0 0 0 0
0 0 0 0 0 0 0 0 0 0 0 0 0 0 0 0 0 0 0 0 0 0 0 0 0 0 0 0 0 0 0 0 0 0 0 0 0 0 0 0 0 0 0
0 0 0 0 0 0 0 0 0 0 0 0 0 0 0 0 0 0 0 0 0 0 0 0 0 0 0 0 0 0 0 0 0 0 0 0 0 0 0 0 0 0 0
0 0 0 0 0 0 0 0 0 0 0 0 0 0 0 0 0 0 0 0 0 0 0 0 0 0 0 0 0 0 0 0 0 0 0 0 0 0 0 0 0 0 0
0 0 0 0 0 0 0 0 0 0 0 0 0 0 0 0 0 0 0 0 0 0 0 0 0 0 0 0 0 0 0 0 0 0 0 0 0 0 0 0 0 0 0
0 0 0 0 0 0 0 0 0 0 0 0 0 0 0 0 0 0 0 0 0 0 0 0 0 0 0 0 0 0 0 0 0 0 0 0 0 0 0 0 0 0 0
0 0 0 0 0 0 0 0 0 0 0 0 0 0 0 0 0 0 0 0 0 0 0 0 0 0 0 0 0 0 0 0 0 0 0 0 0 0 0 0 0 0 0
0 0 0 0 0 0 0 0 0 0 0 0 0 0 0 0 0 0 0 0 0 0 0 0 0 0 0 0 0 0 0 0 0 0 0 0 0 0 0 0 0 0 0
0 0 0 0 0 0 0 0 0 0 0 0 0 0 0 0 0 0 0 0 0 0 0 0 0 0 0 -1 0 0 0 0 0 0 0 0 0 0 0 0 0 0 0
0 0 0 0 0 0 0 0 0 0 0 0 0 0 0 0 0 0 0 0 0 0 0 0 0 0 0 0 0 0 0 0 0 0 0 0 0 0 0 0 0 0 0
0 0 0 0 0 0 0 0 0 0 0 0 0 0 0 0 0 0 0 0 0 0 0 0 0 0 0 0 0 0 0 0 0 0 0 0 0 0 0 0 0 0 0
0 0 0 0 0 0 0 0 0 0 0 0 0 0 0 0 0 0 0 0 0 0 0 0 0 0 0 0 0 0 0 0 0 0 0 0 0 0 0 0 0 0 0
0 0 0 0 0 0 0 0 0 0 0 0 0 0 0 0 0 0 0 0 0 0 0 0 0 0 0 0 0 0 0 0 0 0 0 0 0 0 0 0 0 0 0
0 0 0 0 0 0 0 0 0 0 0 0 0 0 0 0 0 0 0 0 0 0 0 0 0 0 0 0 0 0 0 0 0 0 0 0 0 0 0 0 0 0 0
0 0 0 0 0 0 0 0 0 0 0 0 0 0 0 0 0 0 0 0 0 0 0 0 0 0 0 0 0 0 0 0 0 0 0 0 0 0 0 0 0 0 0
0 0 0 0 0 0 0 0 0 0 0 0 0 0 0 0 0 0 0 0 0 0 0 0 0 0 0 0 0 0 0 0 0 0 0 0 0 0 0 0 0 0 0
0 0 0 0 0 0 0 0 0 0 0 0 0 0 0 0 0 0 0 0 0 0 0 0 0 0 0 0 0 0 0 0 0 0 0 0 0 0 0 0 0 0 0
0 0 0 0 0 0 0 0 0 0 0 0 0 0 0 0 0 0 0 0 0 0 0 0 0 0 0 0 0 0 0 0 0 0 0 0 0 0 0 0 0 0 0
0 0 0 0 0 0 0 0 0 0 0 0 0 0 0 0 0 0 0 0 0 0 0 0 0 0 0 0 0 0 0 0 0 0 0 0 0 0 0 0 0 0 0
0 0 0 0 0 0 0 0 0 0 0 0 0 0 0 0 0 0 0 0 0 0 0 0 0 0 0 0 0 0 0 0 0 0 0 0 0 0 0 0 0 0 0
0 0 0 0 0 0 0 0 0 0 0 0 0 0 0 0 0 0 0 0 0 0 0 0 0 0 0 0 0 0 0 0 0 0 0 0 0 0 0 0 0 0 0
Wind_Speed
12 11 12 11 11 10 10 10 11 10 11 11 10 9 9 8 7 7 6 7 7 6 5 6 5 5 4 3 3 2 3 3 3 3 2 3 4 3 3 2 3 3 3
8 10 12 11 10 10 10 10 11 11 8 11 10 9 9 8 8 8 8 7 8 7 7 7 7 4 5 4 3 5 4 3 3 4 2 4 5 4 3 3 3 3 3
9 10 10 11 11 11 11 11 10 11 10 9 10 10 10 9 8 7 7 7 7 7 7 7 7 6 5 4 5 4 3 2 3 3 4 2 3 2 2 2 3 4 3
9 8 8 9 10 10 10 10 10 10 11 10 10 9 9 8 8 7 7 7 7 7 7 7 7 8 8 7 6 6 5 4 4 4 3 3 3 2 2 2 2 2 3
8 7 7 7 8 9 10 9 9 10 10 10 10 8 8 8 7 8 7 7 8 7 6 7 7 8 11 9 4 6 6 5 4 4 4 3 3 2 3 2 2 1 3
9 9 8 9 8 9 9 9 9 8 8 9 8 9 8 6 11 13 10 7 7 7 8 7 6 6 8 11 13 12 9 5 4 3 3 4 4 3 3 3 3 1 3
8 7 8 8 9 8 8 9 9 10 8 8 7 7 7 6 14 14 14 6 7 7 7 7 4 4 6 6 10 11 11 11 10 4 5 5 3 5 4 3 3 4 4
9 9 8 8 8 7 8 9 6 6 8 7 7 7 7 6 13 14 13 7 6 6 6 6 6 7 8 6 5 6 7 7 7 5 6 4 3 2 4 4 4 2 2
9 11 11 10 10 9 9 9 5 6 5 5 5 7 8 6 13 15 12 5 5 6 6 7 8 6 9 13 6 8 6 5 8 13 11 9 8 10 6 4 1 3 3
14 9 7 8 10 11 9 8 4 4 5 6 6 6 7 7 13 15 11 4 5 6 6 6 11 9 11 14 10 8 7 9 5 3 2 7 7 6 11 7 4 3 2
6 7 8 9 10 8 7 4 6 6 7 6 5 5 6 6 8 15 17 7 7 5 4 4 3 13 15 16 18 8 10 4 7 5 3 1 1 2 3 3 6 5 3
6 7 8 9 7 7 9 5 7 8 8 7 6 4 3 4 9 14 16 16 9 5 5 3 4 12 15 17 15 15 17 11 3 2 1 2 3 5 6 6 7 7 7
7 8 7 6 7 8 9 8 6 7 7 6 6 6 4 3 4 12 11 13 14 7 3 6 8 10 12 11 14 14 11 3 4 4 6 6 6 7 4 3 6 7 7
8 8 7 8 7 6 4 5 6 6 5 4 4 3 2 2 3 3 2 2 3 2 1 3 5 7 8 6 4 5 2 3 6 7 7 7 4 3 5 5 4 4 4
5 7 7 6 8 6 4 4 4 1 4 4 3 4 4 3 4 6 6 3 3 3 4 2 1 1 1 2 2 3 4 4 5 6 6 6 4 5 6 3 3 3 5
5 4 5 6 6 6 7 6 10 9 11 8 7 5 1 8 9 8 7 6 7 6 3 2 1 2 3 3 3 4 5 6 6 5 5 4 5 5 5 3 4 5 7
7 6 5 5 6 7 6 7 8 7 13 12 11 12 9 8 9 7 6 5 4 5 2 2 3 4 4 4 4 5 4 4 4 4 5 4 5 5 5 5 5 6 7
6 6 6 5 5 5 5 5 7 8 6 3 9 9 10 8 7 4 4 5 2 2 1 2 3 3 3 4 4 3 4 3 3 4 4 3 4 5 5 6 6 8 8
6 5 5 5 5 7 6 6 5 6 7 6 3 8 5 12 11 10 9 3 2 1 2 2 4 4 2 4 4 5 5 4 2 2 3 3 4 5 6 6 7 9 9
7 9 7 5 6 6 5 6 6 7 7 5 5 3 2 3 4 5 5 5 4 3 2 2 2 2 2 2 3 3 4 3 4 4 4 3 4 5 6 6 6 7 8
4 5 7 6 6 5 4 6 5 7 7 6 4 2 7 5 5 4 4 4 3 3 3 2 3 4 4 3 4 4 3 2 3 5 5 6 3 6 4 6 7 8 8
4 4 4 5 5 6 6 6 7 6 5 6 5 5 12 5 4 4 3 2 3 4 2 2 2 2 2 2 3 3 3 3 4 5 6 7 7 6 6 7 7 7 7
3 5 5 5 5 6 7 7 6 6 6 5 4 4 4 3 3 3 2 2 2 2 2 3 2 3 3 3 3 2 3 4 4 5 6 7 7 7 7 8 8 8 8
5 5 4 3 5 6 6 7 7 7 6 5 4 3 2 3 2 3 2 2 2 3 3 2 3 3 4 4 3 4 4 4 3 4 5 7 7 8 7 8 8 9 9
4 4 4 5 5 5 6 6 6 6 5 4 4 2 1 2 2 2 2 2 2 3 4 4 3 4 5 8 7 7 7 8 6 7 4 7 9 10 9 8 9 9 10
5 5 5 5 5 4 4 4 5 6 5 4 4 2 1 1 1 2 2 3 3 3 4 4 4 6 8 7 8 10 10 11 10 10 5 5 7 8 7 9 11 8 10
Wind_Direction
163 156 154 157 163 158 169 170 166 158 160 158 163 155 158 155 154 144 145 148 144 148 143 146 141 155 144 131 120 127 144 151 173 284 216 194 189 197 188 220 229 231 265
149 149 155 152 155 160 166 165 157 157 154 158 158 159 160 160 158 153 160 160 156 160 161 155 168 158 160 162 161 178 175 184 151 217 240 220 209 213 199 199 232 237 247
155 149 150 157 163 167 164 157 155 152 154 156 160 166 166 169 159 166 162 162 165 171 166 171 177 170 177 184 191 186 188 177 177 189 243 219 218 182 207 249 239 252 244
148 149 156 156 163 165 157 153 151 154 156 166 168 168 168 165 165 162 158 161 170 174 179 175 186 186 191 194 194 193 180 190 195 209 224 238 213 191 164 203 284 253 265
139 144 157 147 163 150 147 151 151 160 169 165 162 165 158 165 172 161 166 174 171 173 180 190 197 201 205 199 178 198 187 197 198 211 216 215 202 177 195 190 198 245 275
163 161 155 159 154 155 156 159 157 156 159 160 166 163 161 174 171 172 164 170 176 177 194 201 200 198 216 213 221 217 203 189 201 200 212 206 219 200 171 181 168 131 296
155 152 164 156 160 164 155 154 161 172 160 168 156 151 165 167 175 173 173 176 181 193 196 198 189 206 204 222 240 241 242 236 227 217 236 212 221 204 162 165 193 180 218
178 167 165 164 161 150 156 171 154 152 166 163 159 162 157 191 180 177 179 182 197 203 201 198 190 204 212 200 201 231 231 221 235 226 218 220 230 223 189 184 190 194 323
188 183 177 168 161 163 173 173 152 144 150 154 156 159 170 184 184 185 176 177 203 215 216 201 206 212 217 214 203 224 237 236 235 237 235 242 246 250 191 110 176 99 289
189 179 156 155 167 176 174 159 139 149 142 139 161 172 176 179 195 191 177 167 203 221 214 210 213 216 219 219 213 208 236 246 188 254 280 246 251 253 245 189 157 181 193
156 160 160 163 168 167 147 139 141 132 135 143 157 172 180 182 196 195 192 186 207 217 214 202 201 232 235 233 229 203 219 181 220 207 205 228 278 220 219 189 191 185 194
160 156 165 164 153 148 156 140 140 145 148 161 162 178 197 190 199 207 208 207 207 200 222 200 196 228 240 241 236 234 231 228 153 142 173 197 225 235 225 216 211 213 223
164 161 153 149 154 153 152 149 148 155 162 172 180 190 186 196 218 216 219 225 227 220 181 214 218 236 247 252 254 246 247 191 170 192 212 231 223 229 209 209 216 226 235
168 156 146 151 153 144 133 151 156 170 168 159 180 176 161 190 203 198 178 213 251 282 312 228 222 213 216 228 247 263 224 212 206 221 230 234 218 187 214 205 215 208 235
140 147 151 149 151 125 101 136 130 128 147 156 174 155 164 196 213 174 161 165 150 171 110 85 69 338 256 218 228 235 240 239 237 225 220 229 211 215 229 191 213 187 221
125 136 145 140 135 137 125 103 86 112 105 108 132 125 44 115 120 125 133 145 162 140 97 128 160 204 218 214 228 240 239 249 261 256 249 209 222 216 228 185 216 219 236
136 135 128 129 135 142 144 141 125 83 90 93 101 108 112 126 123 122 119 113 112 121 117 173 210 224 227 224 224 234 235 226 235 238 240 224 223 232 212 224 218 229 244
77 85 119 122 132 130 130 123 131 139 132 92 70 91 92 95 96 117 132 140 108 167 180 221 241 242 248 253 250 222 235 235 219 238 232 224 225 238 238 229 231 237 245
68 64 66 90 94 103 106 107 118 116 106 106 74 61 51 104 102 91 84 86 99 81 47 30 38 29 348 347 336 352 4 341 282 266 257 241 242 241 249 245 245 241 246
59 71 78 88 87 90 89 103 101 102 99 102 89 85 41 72 85 70 49 54 56 57 42 30 9 350 329 14 354 338 343 338 329 309 281 246 244 244 257 260 254 255 255
53 63 67 81 90 85 101 88 108 99 104 105 99 105 91 97 86 80 65 56 47 44 42 26 7 16 357 357 344 329 331 329 319 321 320 318 286 281 253 256 262 264 265
73 82 75 78 85 98 99 99 86 96 100 94 75 64 85 64 74 73 75 53 29 44 7 43 27 334 313 343 316 309 314 309 319 332 327 323 315 299 291 284 280 271 266
69 73 78 88 93 98 84 78 82 79 84 85 86 85 69 86 82 80 96 56 38 30 3 26 354 330 319 304 285 271 297 296 302 311 311 312 305 301 301 296 293 289 281
55 63 75 92 82 77 84 95 92 88 96 95 94 80 93 94 108 101 76 9 13 357 18 354 317 319 310 297 288 283 270 272 258 279 279 288 291 292 288 286 286 285 280
75 88 84 80 81 91 98 93 99 100 97 94 85 74 69 82 76 62 46 35 358 19 346 316 301 313 297 308 305 301 294 302 292 278 267 267 272 278 277 281 284 283 279
81 76 75 80 82 79 90 106 105 101 102 96 90 77 106 109 92 58 35 18 13 321 321 293 302 320 317 305 302 307 304 307 297 280 274 270 283 285 280 279 279 275 276